Location: Steilacoom
(47.1700°N, 122.5700°W)
Time: 05:51:13
(UTC-07:00)

ISS - Visible Passes

Search period start: 23 March 2019 00:00
Search period end: 02 April 2019 00:00
Orbit: 406 x 411 km, 51.6° (Epoch: 23 March)

Date Brightness Start Highest point End Pass type
(mag) Time Alt. Az. Time Alt. Az. Time Alt. Az.
23 Mar -2.8 20:03:07 10° SSW 20:06:00 29° SE 20:08:55 10° E visible
23 Mar -2.9 21:39:09 10° WSW 21:41:48 49° WNW 21:41:48 49° WNW visible
24 Mar -3.9 20:48:01 10° WSW 20:51:19 87° NNW 20:53:11 24° ENE visible
24 Mar -0.8 22:25:01 10° WNW 22:25:57 17° WNW 22:25:57 17° WNW visible
25 Mar -3.7 19:57:00 10° SW 20:00:15 60° SSE 20:03:31 10° ENE visible
25 Mar -2.8 21:33:46 10° W 21:36:56 42° N 21:37:11 41° N visible
26 Mar -3.1 20:42:30 10° W 20:45:44 53° NNW 20:48:18 15° ENE visible
26 Mar -1.2 22:19:36 10° WNW 22:21:03 21° NW 22:21:03 21° NW visible
27 Mar -2.6 21:28:22 10° WNW 21:31:27 36° N 21:32:05 33° NNE visible
28 Mar -2.6 20:37:04 10° W 20:40:12 39° N 20:43:03 12° ENE visible
28 Mar -1.6 22:14:01 10° WNW 22:15:47 26° NW 22:15:47 26° NW visible
29 Mar -2.7 21:22:49 10° WNW 21:25:57 37° N 21:26:42 32° NE visible
30 Mar -2.6 20:31:35 10° WNW 20:34:40 36° N 20:37:35 11° ENE visible
30 Mar -2.0 22:08:18 10° WNW 22:10:18 33° NW 22:10:18 33° NW visible
31 Mar -3.2 21:17:08 10° WNW 21:20:21 47° NNE 21:21:10 37° ENE visible
31 Mar -0.4 22:53:45 10° WNW 22:53:54 11° WNW 22:53:54 11° WNW visible
01 Apr -2.8 20:25:56 10° WNW 20:29:04 39° N 20:32:02 11° E visible
01 Apr -2.5 22:02:31 10° WNW 22:04:46 39° WNW 22:04:46 39° WNW visible
